Location: Colonia Mina de C?rbuni
(46.1667°N, 22.7167°E)
Time: 05:54:22
(UTC+00:00)

Vanguard 1 Rocket - Pass Details

Date: 19 April 2024
Orbit: 650 x 4220 km, 34.3° (Epoch: 26 May)

Event Time Altitude Azimuth Distance (km) Brightness Sun altitude
Rises 22:32:56 0° 266° (W) 4,542 10.9 -32.2°
Reaches altitude 10° 22:36:05 10° 253° (WSW) 3,970 10.5 -32.2°
Enters shadow 22:36:33 12° 251° (WSW) 3,906 10.4 -32.2°
